Location: Unspecified
(40.7945°N, 0.0000°E)
Time: 07:11:19
(UTC+00:00)

Explorer 7 - Pass Details

Date: 26 January 2021
Orbit: 484 x 677 km, 50.3° (Epoch: 28 February)

Event Time Altitude Azimuth Distance (km) Brightness Sun altitude
Rises 07:57:59 0° 304° (NW) 2,648 9.6 6.3°
Reaches altitude 10° 08:00:22 10° 316° (NW) 1,788 8.9 6.7°
Maximum altitude 08:03:57 29° 18° (NNE) 1,032 8.2 7.3°
Drops below altitude 10° 08:07:44 10° 79° (E) 1,890 10.4 7.9°
Sets 08:10:18 0° 91° (E) 2,827 11.5 8.3°
